Regional Weather Roundup
Issued by NWS

Home | Current Version | Previous Version | Text Only | Print | Product List | Glossary Off
Versions: 1 2 3 4 5 6 7 8 9 10 11 12 13 14 15 16 17 18 19 20 21 22 23 24 25 26 27 28 29 30 31 32 33 34 35 36 37 38 39 40 41 42 43 44 45 46 47 48 49 50

262
ASUS43 KOAX 071710
RWRNE

WEATHER ROUNDUP FOR NEBRASKA
NATIONAL WEATHER SERVICE OMAHA NE
1100 AM CST SUN FEB 07 2016

NOTES: SATELLITE DATA IS BEING USED TO AUGMENT CLOUD COVER ABOVE
       12000 FEET.
       "FAIR" INDICATES FEW OR NO CLOUDS BELOW 12,000 FEET WITH NO
       SIGNIFICANT WEATHER AND/OR OBSTRUCTIONS TO VISIBILITY.

  * THESE STATIONS DO NOT REPORT WEATHER SUCH AS RAIN...SNOW OR FOG.

NEZ001>004-019>022-054>056-071800-
NEBRASKA PANHANDLE

CITY           SKY/WX    TMP DP  RH WIND       PRES   REMARKS
SCOTTSBLUFF    CLOUDY    34  20  56 NW17G25   30.30R WCI  23
ALLIANCE       CLOUDY    33  18  53 MISG      30.23R
CHADRON        SUNNY     37  15  40 NW28G45   30.24R WCI  25
KIMBALL        LGT SNOW  28  24  83 NW21G26   30.30S WCI  15
SIDNEY         CLOUDY    31  24  75 NW24      30.29R WCI  17
$$

NEZ057>060-069>072-079>082-071800-
SOUTHWEST NEBRASKA

CITY           SKY/WX    TMP DP  RH WIND       PRES   REMARKS
NORTH PLATTE   PTSUNNY   37  22  54 W20       30.20R WCI  27
IMPERIAL       MOSUNNY   35  25  66 NW22G30   30.28R WCI  23
LEXINGTON      CLOUDY    38  25  58 NW20      30.19R WCI  28
MCCOOK         CLOUDY    39  25  57 NW22      30.25R WCI  29
OGALLALA       CLOUDY    35  24  63 W18       30.26R WCI  24
$$

NEZ005>010-023>029-035>040-094-071800-
NORTH CENTRAL NEBRASKA

CITY           SKY/WX    TMP DP  RH WIND       PRES   REMARKS
VALENTINE      MOSUNNY   39  17  41 NW30G43   30.07R WCI  27
AINSWORTH      PTSUNNY   39  13  35 NW36G49   30.06S WCI  26
BROKEN BOW     SUNNY     40  20  44 NW18G30   30.13R WCI  31
O`NEILL        MOSUNNY   40  16  37 NW36G52   30.01S WCI  28
ORD            SUNNY     41  20  43 NW26G36   30.08S
THEDFORD       SUNNY     41  17  38 NW22G39   30.13F
$$

NEZ041-046>049-061>064-073>077-083>087-071800-
SOUTH CENTRAL NEBRASKA

CITY           SKY/WX    TMP DP  RH WIND       PRES   REMARKS
GRAND ISLAND   MOSUNNY   40  25  55 W18       30.12R WCI  31
AURORA         MOSUNNY   39  26  59 W16       30.11R WCI  30
HASTINGS       MOSUNNY   40  25  55 NW18      30.13S WCI  31
HEBRON         PTSUNNY   41  26  55 NW13G20   30.14R
HOLDREGE       PTSUNNY   38  25  58 NW13      30.17R WCI  31
YORK           MOSUNNY   39  27  60 NW20      30.09R WCI  30
$$

NEZ011>018-030>034-042>045-071800-
NORTHEAST NEBRASKA

CITY           SKY/WX    TMP DP  RH WIND       PRES   REMARKS
NORFOLK        SUNNY     41  24  51 W21G29    29.98F
ALBION         SUNNY     41  23  48 W16G26    30.04S
BLAIR          CLOUDY    40  28  64 W16G23    30.00R WCI  31
COLUMBUS *     SUNNY     39  23  52 W16G24    30.05R WCI  30
FREMONT        PTSUNNY   38  28  67 W17       30.03R WCI  28
TEKAMAH        CLOUDY    41  27  57 W20G39    29.98R
WAYNE          MOSUNNY   39  27  62 W18G25    29.97S WCI  30
$$

NEZ050>053-065>068-078-088>093-071800-
SOUTHEAST NEBRASKA

CITY           SKY/WX    TMP DP  RH WIND       PRES   REMARKS
LINCOLN        SUNNY     42  26  53 W21G28    30.08R
OMAHA EPPLEY   PTSUNNY   41  27  57 NW22G29   30.00R
BEATRICE       MOSUNNY   43  28  56 NW23G31   30.10R
FALLS CITY     MOSUNNY   47  27  45 W18       30.07R
NEBRASKA CITY  MOSUNNY   42  28  58 NW20G25   30.04R
PLATTSMOUTH    SUNNY     40  28  61 NW16G23   30.02R WCI  32
$$

NEZ044-045-051>053-067-071800-
OMAHA AREA

CITY           SKY/WX    TMP DP  RH WIND       PRES   REMARKS
OMAHA EPPLEY   PTSUNNY   41  27  57 NW22G29   30.00R
BLAIR          CLOUDY    40  28  64 W16G23    30.00R WCI  31
FREMONT        PTSUNNY   38  28  67 W17       30.03R WCI  28
MILLARD        PTSUNNY   43  28  54 W18G28    30.02R
OFFUTT AFB     MOSUNNY   42  28  57 W17G24    30.00S
PLATTSMOUTH    SUNNY     40  28  61 NW16G23   30.02R WCI  32
WAHOO          FAIR      40  27  59 W21       30.04R WCI  31
$$




USA.gov is the U.S. government's official web portal to all federal, state and local government web resources and services.